Tracking 30743 objects as of 22-Jun-2025
HD Live streaming from Space Station
objects crossing your sky now

STARLINK-31076

Track STARLINK-31076 now!
10-day predictions
STARLINK-31076 is classified as:


NORAD ID: 58736
Int'l Code: 2024-005J
Perigee: 565.2 km
Apogee: 567.2 km
Inclination: 43.0 °
Period: 95.8 minutes
Semi major axis: 6937 km
RCS: Unknown
Launch date: January 7, 2024
Source: United States (US)
Launch site: AIR FORCE EASTERN TEST RANGE (AFETR)
Your satellite tracking list
Your tracking list is empty




NASA's NSSDC Master Catalog

Two Line Element Set (TLE):
1 58736U 24005J   25172.46817544  .00000386  00000-0  43640-4 0  9994
2 58736  43.0021 201.3224 0001434 280.6804  79.3877 15.02532529 81166
Source of the keplerian elements: AFSPC